VA5EVR-13 Weather Reports


time (UTC)temp
F
wind
direction
speed
knots
gust
knots
rain 1hr
in
rain 24hr
in
rain mn
in
humidity
%
barometer
mb
20260508131012 51 270 11.3 11.3 0.00 0.00 0.00 60 88.8
20260508130011 49 270 11.3 11.3 0.00 0.00 0.00 61 88.8
20260508125011 48 270 14.8 14.8 0.00 0.00 0.00 61 88.8
20260508124011 46 225 12.2 12.2 0.00 0.00 0.00 64 88.8
20260508123011 44 248 9.6 9.6 0.00 0.00 0.00 67 88.8
20260508122011 44 270 8.7 8.7 0.00 0.00 0.00 69 88.8
20260508121012 43 270 7.0 7.0 0.00 0.00 0.00 72 88.8
20260508115012 41 248 7.8 7.8 0.00 0.00 0.00 75 88.8
20260508114011 41 248 7.8 7.8 0.00 0.00 0.00 75 88.8
20260508112012 40 202 4.3 4.3 0.00 0.00 0.00 76 88.8
20260508111012 39 248 4.3 4.3 0.00 0.00 0.00 76 88.8
20260508110012 40 225 5.2 5.2 0.00 0.00 0.00 76 88.8
20260508105011 40 248 5.2 5.2 0.00 0.00 0.00 76 88.8
20260508104011 40 248 4.3 4.3 0.00 0.00 0.00 75 88.8
20260508103012 41 248 4.3 4.3 0.00 0.00 0.00 75 88.8
20260508102012 41 248 4.3 4.3 0.00 0.00 0.00 75 88.8
20260508101011 40 270 5.2 5.2 0.00 0.00 0.00 75 88.8
20260508100011 41 225 5.2 5.2 0.00 0.00 0.00 75 88.8
20260508095011 41 225 6.1 6.1 0.00 0.00 0.00 75 88.8
20260508094012 41 270 4.3 4.3 0.00 0.00 0.00 75 88.8
20260508093011 40 225 6.1 6.1 0.00 0.00 0.00 75 88.8
20260508092012 40 270 6.1 6.1 0.00 0.00 0.00 76 88.8
20260508091012 40 248 4.3 4.3 0.00 0.00 0.00 76 88.8
20260508085012 39 270 4.3 4.3 0.00 0.00 0.00 76 88.8
20260508084012 39 248 5.2 5.2 0.00 0.00 0.00 79 88.8
20260508083011 39 225 5.2 5.2 0.00 0.00 0.00 79 88.8
20260508082012 39 248 4.3 4.3 0.00 0.00 0.00 79 88.8
20260508081013 39 225 3.5 3.5 0.00 0.00 0.00 80 88.8
20260508080011 39 202 4.3 4.3 0.00 0.00 0.00 79 88.8
20260508075011 39 248 4.3 4.3 0.00 0.00 0.00 78 88.8
20260508074012 38 225 4.3 4.3 0.00 0.00 0.00 79 88.8
20260508073011 36 248 3.5 3.5 0.00 0.00 0.00 80 88.8
20260508072011 35 248 3.5 3.5 0.00 0.00 0.00 83 88.8
20260508070012 34 112 0.0 0.0 0.00 0.00 0.00 82 88.8
20260508065012 35 270 0.0 0.0 0.00 0.00 0.00 79 88.8
20260508064012 36 225 0.0 0.0 0.00 0.00 0.00 77 88.8
20260508063011 37 202 2.6 2.6 0.00 0.00 0.00 77 88.8
20260508062011 37 225 0.0 0.0 0.00 0.00 0.00 75 88.8
20260508061012 37 225 3.5 3.5 0.00 0.00 0.00 74 88.8
20260508060012 36 202 3.5 3.5 0.00 0.00 0.00 74 88.8
20260508055013 35 225 0.0 0.0 0.00 0.00 0.00 76 88.8
20260508054012 35 225 0.0 0.0 0.00 0.00 0.00 78 88.8
20260508053011 36 180 0.0 0.0 0.00 0.00 0.00 77 88.8
20260508052012 36 158 0.0 0.0 0.00 0.00 0.00 75 88.8
20260508051011 36 180 0.0 0.0 0.00 0.00 0.00 76 88.8
20260508050012 38 315 0.0 0.0 0.00 0.00 0.00 74 88.8
20260508045012 40 22 0.0 0.0 0.00 0.00 0.00 72 88.8
20260508044012 43 22 0.0 0.0 0.00 0.00 0.00 71 88.8
20260508043012 44 22 2.6 2.6 0.00 0.00 0.00 70 88.8
20260508042012 45 22 2.6 2.6 0.00 0.00 0.00 70 88.8
20260508041011 46 22 2.6 2.6 0.00 0.00 0.00 69 88.8
20260508040012 47 45 3.5 3.5 0.00 0.00 0.00 66 88.8
20260508035011 48 45 3.5 3.5 0.00 0.00 0.00 66 88.8
20260508034011 48 112 1.7 1.7 0.00 0.00 0.00 67 88.8
20260508033012 48 68 2.6 2.6 0.00 0.00 0.00 64 88.8
20260508032011 49 90 3.5 3.5 0.00 0.00 0.00 64 88.8
20260508031016 49 68 4.3 4.3 0.00 0.00 0.00 64 88.8
20260508030011 50 45 4.3 4.3 0.00 0.00 0.00 63 88.8
20260508025012 52 45 6.1 6.1 0.00 0.00 0.00 60 88.8
20260508023012 54 68 8.7 8.7 0.00 0.00 0.00 53 88.8
20260508022012 55 90 5.2 5.2 0.00 0.00 0.00 51 88.8
20260508021011 57 90 4.3 4.3 0.00 0.00 0.00 49 88.8
20260508020011 58 68 5.2 5.2 0.00 0.00 0.00 47 88.8
20260508015011 59 90 6.1 6.1 0.00 0.00 0.00 46 88.8
20260508014013 60 90 7.8 7.8 0.00 0.00 0.00 45 88.8
20260508013011 62 68 10.4 10.4 0.00 0.00 0.00 44 88.8
20260508012012 62 68 12.2 12.2 0.00 0.00 0.00 43 88.8
20260508011012 63 68 11.3 11.3 0.00 0.00 0.00 42 88.8
20260508010011 64 112 7.8 7.8 0.00 0.00 0.00 42 88.8
20260508005011 64 90 8.7 8.7 0.00 0.00 0.00 41 88.8
20260508004012 65 112 9.6 9.6 0.00 0.00 0.00 42 88.8
20260508003013 65 90 8.7 8.7 0.00 0.00 0.00 41 88.8
20260508002012 65 90 8.7 8.7 0.00 0.00 0.00 41 88.8
20260508001013 64 90 8.7 8.7 0.00 0.00 0.00 41 88.8
20260508000012 64 90 11.3 11.3 0.00 0.00 0.00 40 88.8
20260507235011 63 112 7.8 7.8 0.00 0.00 0.00 41 88.8
20260507234012 63 90 9.6 9.6 0.00 0.00 0.00 41 88.8
20260507233011 63 112 12.2 12.2 0.00 0.00 0.00 40 88.8
20260507232011 64 90 10.4 10.4 0.00 0.00 0.00 40 88.8
20260507231012 64 90 10.4 10.4 0.00 0.00 0.00 41 88.8
20260507230011 66 90 8.7 8.7 0.00 0.00 0.00 39 88.8
20260507225012 67 90 13.9 13.9 0.00 0.00 0.00 39 88.8
20260507224011 68 45 7.0 7.0 0.00 0.00 0.00 40 88.8
20260507223012 68 270 4.3 4.3 0.00 0.00 0.00 40 88.8
20260507222012 67 292 11.3 11.3 0.00 0.00 0.00 39 88.8
20260507221011 66 315 7.8 7.8 0.00 0.00 0.00 40 88.8
20260507220012 67 270 2.6 2.6 0.00 0.00 0.00 38 88.8
20260507215012 68 270 4.3 4.3 0.00 0.00 0.00 38 88.8
20260507214011 69 0 3.5 3.5 0.00 0.00 0.00 36 88.8
20260507213011 69 270 7.0 7.0 0.00 0.00 0.00 37 88.8
20260507212012 69 292 8.7 8.7 0.00 0.00 0.00 37 88.8
20260507211012 69 292 5.2 5.2 0.00 0.00 0.00 37 88.8
20260507210012 68 270 8.7 8.7 0.00 0.00 0.00 38 88.8
20260507205012 67 315 5.2 5.2 0.00 0.00 0.00 40 88.8
20260507204012 66 292 5.2 5.2 0.00 0.00 0.00 39 88.8
20260507203013 66 292 4.3 4.3 0.00 0.00 0.00 38 88.8
20260507202012 65 270 10.4 10.4 0.00 0.00 0.00 38 88.8
20260507201011 65 270 7.0 7.0 0.00 0.00 0.00 39 88.8
20260507200013 65 225 10.4 10.4 0.00 0.00 0.00 35 88.8
20260507195012 65 270 7.0 7.0 0.00 0.00 0.00 34 88.8
20260507194012 64 270 11.3 11.3 0.00 0.00 0.00 35 88.8
20260507193012 62 225 4.3 4.3 0.00 0.00 0.00 35 88.8
20260507192012 62 225 9.6 9.6 0.00 0.00 0.00 39 88.8
20260507191012 62 202 5.2 5.2 0.00 0.00 0.00 41 88.8
20260507190012 61 270 5.2 5.2 0.00 0.00 0.00 42 88.8
20260507185011 59 270 7.0 7.0 0.00 0.00 0.00 44 88.8
20260507184011 59 270 7.0 7.0 0.00 0.00 0.00 45 88.8
20260507183012 59 270 13.9 13.9 0.00 0.00 0.00 41 88.8
20260507182012 59 225 7.0 7.0 0.00 0.00 0.00 40 88.8
20260507181011 60 270 7.8 7.8 0.00 0.00 0.00 39 88.8
20260507180011 59 270 7.0 7.0 0.00 0.00 0.00 37 88.8
20260507175012 59 248 7.0 7.0 0.00 0.00 0.00 37 88.8
20260507174012 59 270 7.8 7.8 0.00 0.00 0.00 40 88.8
20260507173011 60 270 9.6 9.6 0.00 0.00 0.00 35 88.8
20260507172012 61 270 5.2 5.2 0.00 0.00 0.00 36 88.8
20260507171011 61 270 10.4 10.4 0.00 0.00 0.00 39 88.8
20260507170011 60 270 7.0 7.0 0.00 0.00 0.00 30 88.8
20260507165012 59 270 7.8 7.8 0.00 0.00 0.00 31 88.8
20260507164012 58 202 7.8 7.8 0.00 0.00 0.00 32 88.8
20260507163011 58 225 9.6 9.6 0.00 0.00 0.00 32 88.8
20260507161012 57 248 8.7 8.7 0.00 0.00 0.00 33 88.8
20260507160012 56 270 7.0 7.0 0.00 0.00 0.00 34 88.8
20260507155012 56 202 9.6 9.6 0.00 0.00 0.00 35 88.8
20260507154012 56 225 4.3 4.3 0.00 0.00 0.00 35 88.8
20260507153011 54 248 7.0 7.0 0.00 0.00 0.00 36 88.8
20260507152012 54 202 9.6 9.6 0.00 0.00 0.00 36 88.8
20260507151012 54 202 8.7 8.7 0.00 0.00 0.00 37 88.8
20260507150011 53 225 7.8 7.8 0.00 0.00 0.00 37 88.8
20260507145012 52 225 7.0 7.0 0.00 0.00 0.00 39 88.8
20260507144011 52 225 8.7 8.7 0.00 0.00 0.00 40 88.8
20260507143012 50 248 9.6 9.6 0.00 0.00 0.00 40 88.8
20260507142012 49 202 5.2 5.2 0.00 0.00 0.00 42 88.8
20260507141012 47 225 4.3 4.3 0.00 0.00 0.00 42 88.8
20260507140011 46 225 7.8 7.8 0.00 0.00 0.00 44 88.8
20260507135011 45 270 7.0 7.0 0.00 0.00 0.00 44 88.8
20260507134012 44 270 7.8 7.8 0.00 0.00 0.00 44 88.8
20260507133012 44 202 6.1 6.1 0.00 0.00 0.00 45 88.8
20260507132011 43 225 6.1 6.1 0.00 0.00 0.00 48 88.8